Date,TemperatureHighF,TemperatureAvgF,TemperatureLowF,DewpointHighF,DewpointAvgF,DewpointLowF,HumidityHigh,HumidityAvg,HumidityLow,PressureMaxIn,PressureMinIn,WindSpeedMaxMPH,WindSpeedAvgMPH,GustSpeedMaxMPH,PrecipitationSumIn
2013-1-1,31.7,19.1,7.6,24.7,8.3,-2.0,84,62,45,29.84,29.56,31,3,31,0.00
2013-1-2,17.9,9.3,-0.8,4.7,-2.5,-11.1,69,58,42,30.07,29.80,24,3,24,0.00
2013-1-3,16.2,6.8,-2.3,5.1,-3.3,-11.4,82,63,44,30.11,29.92,19,1,19,0.00
2013-1-4,35.1,25.2,6.9,23.7,17.5,2.6,86,73,55,29.92,29.67,22,2,22,0.02
2013-1-5,30.5,22.9,9.5,23.5,12.7,3.5,79,65,44,30.25,29.68,29,3,29,0.00
2013-1-6,26.5,20.6,10.9,23.3,16.1,5.2,92,82,74,30.20,29.90,3,0,3,0.00
2013-1-7,30.8,21.2,5.1,28.7,13.4,0.3,93,73,41,30.37,29.91,14,1,14,0.01
2013-1-8,43.5,22.2,5.3,25.7,14.4,0.6,87,73,43,30.35,30.15,19,1,19,0.04
2013-1-9,41.4,27.2,16.0,30.8,21.8,13.3,92,80,61,30.40,29.85,17,1,17,0.00
2013-1-10,38.4,33.4,26.3,30.4,24.4,19.2,90,70,51,30.50,29.89,31,3,31,0.02
2013-1-11,35.3,28.2,18.0,27.8,20.6,13.6,91,73,55,30.52,30.22,5,0,5,0.00
2013-1-12,36.7,33.1,30.2,35.1,31.6,27.9,95,94,91,30.22,30.08,4,0,4,0.05
2013-1-13,32.2,28.3,26.2,30.9,15.3,6.7,96,62,41,30.26,30.07,5,2,9,0.00
2013-1-14,27.4,26.9,26.2,8.5,7.6,6.7,46,43,41,30.26,30.25,4,3,9,0.00
2013-1-15,35.5,27.5,25.4,19.8,12.0,6.7,78,53,41,30.27,30.21,8,2,9,0.00
2013-1-16,27.9,26.1,24.2,25.3,22.8,19.3,93,87,77,30.22,29.74,1,0,1,0.00
2013-1-17,25.7,22.3,19.0,23.9,20.5,17.1,100,93,92,29.77,29.74,7,0,7,0.00
2013-1-18,21.9,19.5,17.1,19.7,17.0,14.2,91,90,88,29.99,29.85,1,1,2,0.00
2013-1-19,32.3,20.8,7.8,24.7,16.4,3.7,90,83,68,30.25,29.83,3,0,7,0.00
2013-1-20,41.4,27.1,14.8,31.6,19.6,7.4,92,75,46,29.82,29.41,20,2,20,0.01
2013-1-21,20.6,13.6,6.7,9.3,1.3,-4.8,85,59,39,30.00,29.81,15,2,19,0.00
2013-1-22,18.2,9.6,-0.3,8.3,0.5,-15.0,86,67,45,30.00,29.75,20,1,20,0.00
2013-1-23,3.5,-2.3,-7.7,-12.0,-17.5,-22.5,60,48,36,30.09,29.98,15,2,23,0.00
2013-1-24,12.0,0.6,-13.7,-7.3,-13.6,-20.1,72,52,32,30.07,29.89,27,4,27,0.00
2013-1-25,16.6,10.1,3.2,-0.5,-4.9,-8.7,69,51,33,30.18,30.02,14,1,17,0.00
2013-1-26,18.7,9.6,3.4,-1.9,-4.7,-9.3,71,54,29,30.06,29.99,13,2,17,0.00
2013-1-27,26.4,15.3,8.5,5.7,-3.5,-7.3,51,43,32,30.29,30.08,10,2,25,0.00
2013-1-28,19.5,13.1,2.8,14.2,4.1,-5.8,89,69,32,30.41,30.06,1,0,4,0.00
2013-1-29,31.5,22.1,9.7,25.4,18.1,6.9,92,85,73,30.20,30.05,1,0,5,0.00
2013-1-30,39.1,33.5,27.3,38.0,32.3,25.3,100,95,92,30.12,29.41,1,0,6,0.00
2013-1-31,52.1,37.5,22.7,51.3,29.2,8.2,97,74,43,29.42,28.76,20,3,26,0.64